,,,PA_Meas_PMT16A,,PR_Meas_QMR101_102,,RH_Meas_QMH101,,SR_Meas_QMS101,,TA_Meas_QMH101,,GenWind,,GenWind,
date,time,status,PA,status,PR,status,RH,status,SR,status,TA,status,DirAvg,status,SpdAvg,
2011-02-16, 00:00:04,VALID,1000.99,VALID,0,VALID,88.5036,VALID,0,VALID,24.5385,VALID,151,VALID,0.614844,
2011-02-16, 00:01:04,VALID,1000.95,VALID,0,VALID,88.4883,VALID,0,VALID,24.5385,VALID,151,VALID,0.449219,
2011-02-16, 00:02:04,VALID,1000.95,VALID,0,VALID,88.3968,VALID,0,VALID,24.5404,VALID,151,VALID,0.460547,
2011-02-16, 00:03:04,VALID,1000.95,VALID,0,VALID,88.3739,VALID,0,VALID,24.5209,VALID,151,VALID,0.414453,
2011-02-16, 00:04:04,VALID,1000.93,VALID,0,VALID,88.29,VALID,0,VALID,24.4818,VALID,151,VALID,0.279297,
2011-02-16, 00:05:04,VALID,1000.87,VALID,0,VALID,88.1908,VALID,0,VALID,24.3824,VALID,151,VALID,0.415234,
2011-02-16, 00:06:04,VALID,1000.81,VALID,0,VALID,88.4197,VALID,0,VALID,24.3062,VALID,151,VALID,0.2625,
2011-02-16, 00:07:04,VALID,1000.77,VALID,0,VALID,88.9309,VALID,0,VALID,24.2476,VALID,151,VALID,0.189844,
2011-02-16, 00:08:04,VALID,1000.73,VALID,0,VALID,89.3047,VALID,0,VALID,24.1872,VALID,158,VALID,0.447266,
2011-02-16, 00:09:04,VALID,1000.7,VALID,0,VALID,89.6099,VALID,0,VALID,24.2476,VALID,191,VALID,1.14688,
2011-02-16, 00:10:04,VALID,1000.67,VALID,0,VALID,89.6938,VALID,0,VALID,24.2848,VALID,186,VALID,1.1207,
2011-02-16, 00:11:04,VALID,1000.65,VALID,0,VALID,89.4649,VALID,0,VALID,24.3647,VALID,179,VALID,1.08906,
2011-02-16, 00:12:04,VALID,1000.65,VALID,0,VALID,89.0758,VALID,0,VALID,24.4233,VALID,180,VALID,0.590625,
2011-02-16, 00:13:04,VALID,1000.62,VALID,0,VALID,88.618,VALID,0.112286,VALID,24.4214,VALID,172,VALID,0.937109,
2011-02-16, 00:14:04,VALID,1000.63,VALID,0,VALID,88.3739,VALID,0,VALID,24.4409,VALID,175,VALID,0.427734,
2011-02-16, 00:15:04,VALID,1000.59,VALID,0,VALID,88.4426,VALID,0.112286,VALID,24.4233,VALID,175,VALID,0.80625,
2011-02-16, 00:16:04,VALID,1000.59,VALID,0,VALID,88.8622,VALID,0,VALID,24.3238,VALID,169,VALID,0.799219,
2011-02-16, 00:17:04,VALID,1000.59,VALID,0,VALID,89.2513,VALID,0,VALID,24.2263,VALID,169,VALID,0.648828,
2011-02-16, 00:18:04,VALID,1000.6,VALID,0,VALID,89.5565,VALID,0,VALID,24.1482,VALID,169,VALID,0.5375,
2011-02-16, 00:19:04,VALID,1000.63,VALID,0,VALID,89.793,VALID,0,VALID,24.111,VALID,169,VALID,0.607422,
2011-02-16, 00:20:04,VALID,1000.66,VALID,0,VALID,90.1516,VALID,0,VALID,24.0506,VALID,169,VALID,0.676172,
2011-02-16, 00:21:04,VALID,1000.71,VALID,0,VALID,90.2966,VALID,0,VALID,23.9921,VALID,359,VALID,0.889453,
2011-02-16, 00:22:04,VALID,1000.72,VALID,0,VALID,90.5178,VALID,0,VALID,23.9336,VALID,359,VALID,0.711719,
2011-02-16, 00:23:04,VALID,1000.7,VALID,0,VALID,90.7696,VALID,0,VALID,23.875,VALID,359,VALID,0.571094,
2011-02-16, 00:24:04,VALID,1000.72,VALID,0,VALID,91.0443,VALID,0,VALID,23.9159,VALID,359,VALID,0.4375,
2011-02-16, 00:25:04,VALID,1000.72,VALID,0,VALID,91.2426,VALID,0,VALID,23.8555,VALID,359,VALID,0.386719,
2011-02-16, 00:26:04,VALID,1000.72,VALID,0,VALID,91.3189,VALID,0,VALID,23.8165,VALID,359,VALID,0.466016,
2011-02-16, 00:27:04,VALID,1000.73,VALID,0,VALID,91.4257,VALID,0,VALID,23.7775,VALID,359,VALID,0.476172,
2011-02-16, 00:28:04,VALID,1000.72,VALID,0,VALID,91.5402,VALID,0,VALID,23.7775,VALID,359,VALID,0.430859,
2011-02-16, 00:29:04,VALID,1000.68,VALID,0,VALID,91.5631,VALID,0,VALID,23.7189,VALID,359,VALID,0.155469,
2011-02-16, 00:30:04,VALID,1000.68,VALID,0,VALID,91.6088,VALID,0,VALID,23.6604,VALID,359,VALID,0,
2011-02-16, 00:31:04,VALID,1000.67,VALID,0,VALID,91.6317,VALID,0,VALID,23.6409,VALID,359,VALID,0,
2011-02-16, 00:32:04,VALID,1000.67,VALID,0,VALID,91.6394,VALID,0,VALID,23.6427,VALID,359,VALID,0,
2011-02-16, 00:33:04,VALID,1000.67,VALID,0,VALID,91.7004,VALID,0,VALID,23.6214,VALID,359,VALID,0,
2011-02-16, 00:34:04,VALID,1000.68,VALID,0,VALID,91.7996,VALID,0,VALID,23.6817,VALID,359,VALID,0,
2011-02-16, 00:35:04,VALID,1000.66,VALID,0,VALID,91.8988,VALID,0,VALID,23.6799,VALID,359,VALID,0.0628906,
2011-02-16, 00:36:04,VALID,1000.67,VALID,0,VALID,91.9522,VALID,0.112286,VALID,23.6994,VALID,359,VALID,0.454688,
2011-02-16, 00:37:04,VALID,1000.65,VALID,0,VALID,92.0666,VALID,0,VALID,23.7189,VALID,359,VALID,0.371094,
2011-02-16, 00:38:04,VALID,1000.67,VALID,0,VALID,92.1353,VALID,0,VALID,23.7384,VALID,359,VALID,0.296094,
2011-02-16, 00:39:04,VALID,1000.66,VALID,0,VALID,92.1887,VALID,0.112286,VALID,23.7189,VALID,359,VALID,0.178906,
2011-02-16, 00:40:04,VALID,1000.64,VALID,0,VALID,92.2192,VALID,0,VALID,23.6994,VALID,359,VALID,0.130469,
2011-02-16, 00:41:04,VALID,1000.6,VALID,0,VALID,92.2497,VALID,0,VALID,23.7189,VALID,359,VALID,0.0867188,
2011-02-16, 00:42:04,VALID,1000.63,VALID,0,VALID,92.2955,VALID,0.112286,VALID,23.7189,VALID,359,VALID,0.175781,
2011-02-16, 00:43:04,VALID,1000.63,VALID,0,VALID,92.3184,VALID,0,VALID,23.6817,VALID,359,VALID,0.410547,
2011-02-16, 00:44:04,VALID,1000.64,VALID,0,VALID,92.3413,VALID,0,VALID,23.7012,VALID,359,VALID,0.571484,
2011-02-16, 00:45:04,VALID,1000.62,VALID,0,VALID,92.3642,VALID,0,VALID,23.6835,VALID,359,VALID,0.544922,
2011-02-16, 00:46:04,VALID,1000.56,VALID,0,VALID,92.3337,VALID,0,VALID,23.664,VALID,359,VALID,0.708594,
2011-02-16, 00:47:04,VALID,1000.56,VALID,0,VALID,92.3413,VALID,0,VALID,23.6232,VALID,359,VALID,0.637891,
2011-02-16, 00:48:04,VALID,1000.47,VALID,0,VALID,92.3413,VALID,0,VALID,23.6817,VALID,359,VALID,0.597656,
2011-02-16, 00:49:04,VALID,1000.45,VALID,0,VALID,92.3718,VALID,0,VALID,23.7402,VALID,359,VALID,0.582031,
2011-02-16, 00:50:04,VALID,1000.4,VALID,0,VALID,92.3718,VALID,0,VALID,23.7793,VALID,359,VALID,0.60625,
2011-02-16, 00:51:04,VALID,1000.35,VALID,0,VALID,92.3947,VALID,0,VALID,23.8378,VALID,359,VALID,0.612109,
2011-02-16, 00:52:04,VALID,1000.31,VALID,0,VALID,92.4023,VALID,0,VALID,23.8183,VALID,359,VALID,0.535547,
2011-02-16, 00:53:04,VALID,1000.29,VALID,0,VALID,92.3871,VALID,0,VALID,23.8591,VALID,359,VALID,0.499609,
2011-02-16, 00:54:04,VALID,1000.29,VALID,0,VALID,92.41,VALID,0,VALID,23.8963,VALID,359,VALID,0.434375,
2011-02-16, 00:55:04,VALID,1000.33,VALID,0,VALID,92.4176,VALID,0.112286,VALID,23.875,VALID,359,VALID,0.502734,
2011-02-16, 00:56:04,VALID,1000.31,VALID,0,VALID,92.4176,VALID,0.112286,VALID,23.8945,VALID,359,VALID,0.548047,
2011-02-16, 00:57:04,VALID,1000.32,VALID,0,VALID,92.41,VALID,0,VALID,23.9159,VALID,359,VALID,0.475391,
2011-02-16, 00:58:04,VALID,1000.27,VALID,0,VALID,92.4023,VALID,0,VALID,23.8945,VALID,359,VALID,0.248047,
2011-02-16, 00:59:04,VALID,1000.26,VALID,0,VALID,92.41,VALID,0,VALID,23.9159,VALID,359,VALID,0.249219,
2011-02-16, 01:00:04,VALID,1000.25,VALID,0,VALID,92.3794,VALID,0,VALID,23.8963,VALID,359,VALID,0.284766,
2011-02-16, 01:01:04,VALID,1000.2,VALID,0,VALID,92.3871,VALID,0,VALID,23.8768,VALID,359,VALID,0.183984,
2011-02-16, 01:02:04,VALID,1000.19,VALID,0,VALID,92.3642,VALID,0,VALID,23.8963,VALID,359,VALID,0.0046875,
2011-02-16, 01:03:04,VALID,1000.19,VALID,0,VALID,92.3718,VALID,0,VALID,23.8768,VALID,359,VALID,0,
2011-02-16, 01:04:04,VALID,1000.19,VALID,0,VALID,92.3642,VALID,0.112286,VALID,23.8963,VALID,359,VALID,0,
2011-02-16, 01:05:04,VALID,1000.22,VALID,0,VALID,92.3566,VALID,0,VALID,23.8963,VALID,359,VALID,0,
2011-02-16, 01:06:04,VALID,1000.26,VALID,0,VALID,92.4023,VALID,0,VALID,23.9159,VALID,359,VALID,0.242578,
2011-02-16, 01:07:04,VALID,1000.28,VALID,0,VALID,92.41,VALID,0,VALID,23.914,VALID,359,VALID,0.6875,
2011-02-16, 01:08:04,VALID,1000.32,VALID,0,VALID,92.3871,VALID,0,VALID,23.9354,VALID,59,VALID,0.971484,
2011-02-16, 01:09:04,VALID,1000.33,VALID,0,VALID,92.4023,VALID,0.112286,VALID,23.9549,VALID,58,VALID,0.957031,
2011-02-16, 01:10:04,VALID,1000.33,VALID,0,VALID,92.3794,VALID,0,VALID,23.9549,VALID,58,VALID,0.569141,
2011-02-16, 01:11:04,VALID,1000.31,VALID,0,VALID,92.3794,VALID,0,VALID,23.9354,VALID,58,VALID,0.242969,
2011-02-16, 01:12:04,VALID,1000.25,VALID,0,VALID,92.3489,VALID,0,VALID,23.9354,VALID,58,VALID,0.106641,
2011-02-16, 01:13:04,VALID,1000.25,VALID,0,VALID,92.326,VALID,0,VALID,23.9549,VALID,58,VALID,0,
2011-02-16, 01:14:04,VALID,1000.27,VALID,0,VALID,92.3184,VALID,0,VALID,23.9336,VALID,58,VALID,0.157813,
2011-02-16, 01:15:04,VALID,1000.25,VALID,0,VALID,92.3184,VALID,0,VALID,23.9939,VALID,58,VALID,0,
2011-02-16, 01:16:04,VALID,1000.29,VALID,0,VALID,92.2955,VALID,0,VALID,23.9549,VALID,58,VALID,0,
2011-02-16, 01:17:04,VALID,1000.26,VALID,0,VALID,92.2879,VALID,0.112286,VALID,23.9336,VALID,58,VALID,0,
2011-02-16, 01:18:04,VALID,1000.25,VALID,0,VALID,92.2574,VALID,0,VALID,23.9354,VALID,58,VALID,0,
2011-02-16, 01:19:04,VALID,1000.23,VALID,0,VALID,92.2497,VALID,0,VALID,23.9354,VALID,58,VALID,0,
2011-02-16, 01:20:04,VALID,1000.23,VALID,0,VALID,92.2497,VALID,0,VALID,23.9354,VALID,58,VALID,0,
2011-02-16, 01:21:04,VALID,1000.21,VALID,0,VALID,92.2421,VALID,0,VALID,23.9159,VALID,58,VALID,0,
2011-02-16, 01:22:04,VALID,1000.22,VALID,0,VALID,92.2345,VALID,0.112286,VALID,23.9159,VALID,58,VALID,0,
2011-02-16, 01:23:04,VALID,1000.22,VALID,0,VALID,92.2192,VALID,0,VALID,23.9354,VALID,58,VALID,0,
2011-02-16, 01:24:04,VALID,1000.23,VALID,0,VALID,92.2192,VALID,0,VALID,23.914,VALID,58,VALID,0.0523437,
2011-02-16, 01:25:04,VALID,1000.27,VALID,0,VALID,92.2268,VALID,0,VALID,23.8945,VALID,58,VALID,0.253516,
2011-02-16, 01:26:04,VALID,1000.24,VALID,0,VALID,92.1811,VALID,0,VALID,23.9159,VALID,58,VALID,0.166016,
2011-02-16, 01:27:04,VALID,1000.25,VALID,0,VALID,92.1887,VALID,0,VALID,23.9159,VALID,58,VALID,0.405078,
2011-02-16, 01:28:04,VALID,1000.24,VALID,0,VALID,92.1811,VALID,0.112286,VALID,23.914,VALID,58,VALID,0.6375,
2011-02-16, 01:29:04,VALID,1000.23,VALID,0,VALID,92.1582,VALID,0,VALID,23.914,VALID,103,VALID,0.697266,
2011-02-16, 01:30:04,VALID,1000.23,VALID,0,VALID,92.0437,VALID,0,VALID,23.8945,VALID,103,VALID,0.777344,
2011-02-16, 01:31:04,VALID,1000.18,VALID,0,VALID,91.9522,VALID,0.112286,VALID,23.8945,VALID,103,VALID,0.466797,
2011-02-16, 01:32:04,VALID,1000.16,VALID,0,VALID,91.8683,VALID,0,VALID,23.9549,VALID,103,VALID,0.452734,
2011-02-16, 01:33:04,VALID,1000.17,VALID,0,VALID,91.7691,VALID,0,VALID,23.914,VALID,121,VALID,0.760156,
2011-02-16, 01:34:04,VALID,1000.17,VALID,0,VALID,91.6699,VALID,0,VALID,23.9531,VALID,146,VALID,0.954687,
2011-02-16, 01:35:04,VALID,1000.12,VALID,0,VALID,91.5936,VALID,0,VALID,23.9336,VALID,153,VALID,1.08242,
2011-02-16, 01:36:04,VALID,1000.11,VALID,0,VALID,91.5249,VALID,0,VALID,23.9549,VALID,166,VALID,1.09063,
2011-02-16, 01:37:04,VALID,1000.06,VALID,0,VALID,91.4028,VALID,0,VALID,23.9531,VALID,167,VALID,1.10859,
2011-02-16, 01:38:04,VALID,1000.12,VALID,0,VALID,91.2274,VALID,0,VALID,23.9531,VALID,163,VALID,1.03242,
2011-02-16, 01:39:04,VALID,1000.13,VALID,0,VALID,91.0137,VALID,0,VALID,23.9744,VALID,156,VALID,1.03281,
2011-02-16, 01:40:04,VALID,1000.17,VALID,0,VALID,90.762,VALID,0.112286,VALID,23.9726,VALID,134,VALID,0.792969,
2011-02-16, 01:41:04,VALID,1000.14,VALID,0,VALID,90.4949,VALID,0,VALID,23.9726,VALID,113,VALID,0.869531,
2011-02-16, 01:42:04,VALID,1000.12,VALID,0,VALID,90.4339,VALID,0,VALID,24.0134,VALID,110,VALID,0.661328,
2011-02-16, 01:43:04,VALID,1000.07,VALID,0,VALID,90.472,VALID,0,VALID,24.0311,VALID,110,VALID,0.411719,
2011-02-16, 01:44:04,VALID,1000.05,VALID,0,VALID,90.5026,VALID,0,VALID,24.0311,VALID,110,VALID,0.437891,
2011-02-16, 01:45:04,VALID,1000.01,VALID,0,VALID,90.5254,VALID,0.112286,VALID,24.0525,VALID,110,VALID,0.466797,
2011-02-16, 01:46:04,VALID,999.977,VALID,0,VALID,90.5407,VALID,0,VALID,24.0311,VALID,112,VALID,0.589063,
2011-02-16, 01:47:04,VALID,999.967,VALID,0,VALID,90.5178,VALID,0,VALID,24.0116,VALID,148,VALID,0.904297,
2011-02-16, 01:48:04,VALID,999.927,VALID,0,VALID,90.5026,VALID,0,VALID,24.0525,VALID,146,VALID,0.914453,
2011-02-16, 01:49:04,VALID,999.923,VALID,0,VALID,90.4644,VALID,0.112286,VALID,24.0116,VALID,144,VALID,0.993359,
2011-02-16, 01:50:04,VALID,999.907,VALID,0,VALID,90.5026,VALID,0,VALID,24.0329,VALID,145,VALID,1.01328,
2011-02-16, 01:51:04,VALID,999.86,VALID,0,VALID,90.4797,VALID,0,VALID,24.0311,VALID,148,VALID,1.05859,
2011-02-16, 01:52:04,VALID,999.833,VALID,0,VALID,90.4263,VALID,0,VALID,24.0329,VALID,151,VALID,0.948047,
2011-02-16, 01:53:04,VALID,999.827,VALID,0,VALID,90.2584,VALID,0,VALID,24.0311,VALID,151,VALID,1.10664,
2011-02-16, 01:54:04,VALID,999.781,VALID,0,VALID,90.0066,VALID,0,VALID,24.0311,VALID,151,VALID,1.20117,
2011-02-16, 01:55:04,VALID,999.748,VALID,0,VALID,89.7701,VALID,0,VALID,24.0701,VALID,151,VALID,1.17695,
2011-02-16, 01:56:04,VALID,999.683,VALID,0,VALID,89.5717,VALID,0,VALID,24.0897,VALID,151,VALID,1.06953,
2011-02-16, 01:57:04,VALID,999.675,VALID,0,VALID,89.4115,VALID,0,VALID,24.0897,VALID,151,VALID,0.999219,
2011-02-16, 01:58:04,VALID,999.641,VALID,0,VALID,89.2971,VALID,0,VALID,24.0915,VALID,152,VALID,0.964063,
2011-02-16, 01:59:04,VALID,999.643,VALID,0,VALID,89.2284,VALID,0,VALID,24.1324,VALID,152,VALID,0.823438,
2011-02-16, 02:00:04,VALID,999.661,VALID,0,VALID,89.2132,VALID,0,VALID,24.1305,VALID,152,VALID,0.579687,
2011-02-16, 02:01:04,VALID,999.686,VALID,0,VALID,89.1826,VALID,0,VALID,24.1714,VALID,152,VALID,0.167969,
2011-02-16, 02:02:04,VALID,999.668,VALID,0,VALID,89.3505,VALID,0,VALID,24.15,VALID,152,VALID,0.634766,
2011-02-16, 02:03:04,VALID,999.685,VALID,0,VALID,89.4726,VALID,0,VALID,24.1519,VALID,152,VALID,0.496094,
2011-02-16, 02:04:04,VALID,999.639,VALID,0,VALID,89.5641,VALID,0,VALID,24.1305,VALID,152,VALID,0.360156,
2011-02-16, 02:05:04,VALID,999.603,VALID,0,VALID,89.6938,VALID,0,VALID,24.1305,VALID,152,VALID,0.283203,
2011-02-16, 02:06:04,VALID,999.564,VALID,0,VALID,89.7777,VALID,0,VALID,24.1324,VALID,152,VALID,0.423438,
2011-02-16, 02:07:04,VALID,999.562,VALID,0,VALID,89.8235,VALID,0,VALID,24.0915,VALID,152,VALID,0.450391,
2011-02-16, 02:08:04,VALID,999.551,VALID,0,VALID,89.8388,VALID,0,VALID,24.111,VALID,152,VALID,0.219141,
2011-02-16, 02:09:04,VALID,999.549,VALID,0,VALID,89.8235,VALID,0,VALID,24.1324,VALID,152,VALID,0,
2011-02-16, 02:10:04,VALID,999.553,VALID,0,VALID,89.8006,VALID,0,VALID,24.1305,VALID,151,VALID,0.325391,
2011-02-16, 02:11:04,VALID,999.553,VALID,0,VALID,89.854,VALID,0,VALID,24.1305,VALID,19,VALID,0.757031,
2011-02-16, 02:12:04,VALID,999.557,VALID,0,VALID,89.9227,VALID,0,VALID,24.0915,VALID,19,VALID,0.753906,
2011-02-16, 02:13:04,VALID,999.517,VALID,0,VALID,90.0371,VALID,0,VALID,24.072,VALID,19,VALID,0.742578,
2011-02-16, 02:14:04,VALID,999.542,VALID,0,VALID,90.1592,VALID,0,VALID,24.0738,VALID,19,VALID,0.924219,
2011-02-16, 02:15:04,VALID,999.55,VALID,0,VALID,90.3118,VALID,0,VALID,24.0543,VALID,8,VALID,1.09961,
2011-02-16, 02:16:04,VALID,999.595,VALID,0,VALID,90.5026,VALID,0,VALID,24.0738,VALID,5,VALID,1.51055,
2011-02-16, 02:17:04,VALID,999.579,VALID,0,VALID,90.6475,VALID,0,VALID,24.0738,VALID,4,VALID,1.70586,
2011-02-16, 02:18:04,VALID,999.605,VALID,0,VALID,90.7696,VALID,0,VALID,24.0933,VALID,16,VALID,2.46797,
2011-02-16, 02:19:04,VALID,999.603,VALID,0,VALID,90.8306,VALID,0,VALID,24.0525,VALID,353,VALID,3.0418,
2011-02-16, 02:20:04,VALID,999.649,VALID,0,VALID,90.6704,VALID,0,VALID,24.0738,VALID,356,VALID,2.39336,
2011-02-16, 02:21:04,VALID,999.612,VALID,0,VALID,90.556,VALID,0,VALID,24.0933,VALID,341,VALID,2.07773,
2011-02-16, 02:22:04,VALID,999.641,VALID,0,VALID,90.4491,VALID,0,VALID,24.111,VALID,332,VALID,1.78125,
2011-02-16, 02:23:04,VALID,999.662,VALID,0,VALID,90.411,VALID,0,VALID,24.1305,VALID,335,VALID,0.826563,
2011-02-16, 02:24:04,VALID,999.675,VALID,0,VALID,90.3957,VALID,0,VALID,24.1714,VALID,325,VALID,1.03945,
2011-02-16, 02:25:04,VALID,999.75,VALID,0,VALID,90.4034,VALID,0,VALID,24.1696,VALID,338,VALID,1.29883,
2011-02-16, 02:26:04,VALID,999.737,VALID,0,VALID,90.4339,VALID,0,VALID,24.15,VALID,337,VALID,0.880859,
2011-02-16, 02:27:04,VALID,999.736,VALID,0,VALID,90.5254,VALID,0,VALID,24.1519,VALID,337,VALID,0.833984,
2011-02-16, 02:28:04,VALID,999.731,VALID,0,VALID,90.5712,VALID,0,VALID,24.1305,VALID,342,VALID,1.32578,
2011-02-16, 02:29:04,VALID,999.738,VALID,0,VALID,90.6323,VALID,0,VALID,24.1324,VALID,336,VALID,1.21094,
2011-02-16, 02:30:04,VALID,999.715,VALID,0,VALID,90.7467,VALID,0,VALID,24.1305,VALID,319,VALID,1.60156,
2011-02-16, 02:31:04,VALID,999.723,VALID,0,VALID,90.9222,VALID,0,VALID,24.15,VALID,323,VALID,1.34414,
2011-02-16, 02:32:04,VALID,999.694,VALID,0,VALID,91.0214,VALID,0,VALID,24.1305,VALID,333,VALID,1.55664,
2011-02-16, 02:33:04,VALID,999.663,VALID,0,VALID,91.09,VALID,0,VALID,24.1519,VALID,323,VALID,1.03633,
2011-02-16, 02:34:04,VALID,999.6,VALID,0,VALID,91.1587,VALID,0,VALID,24.111,VALID,288,VALID,0.891016,
2011-02-16, 02:35:04,VALID,999.62,VALID,0,VALID,91.1968,VALID,0,VALID,24.1519,VALID,325,VALID,1.0375,
2011-02-16, 02:36:04,VALID,999.6,VALID,0,VALID,91.1663,VALID,0,VALID,24.1714,VALID,352,VALID,0.888672,
2011-02-16, 02:37:04,VALID,999.664,VALID,0,VALID,91.1282,VALID,0,VALID,24.15,VALID,335,VALID,0.426172,
2011-02-16, 02:38:04,VALID,999.687,VALID,0,VALID,91.1129,VALID,0,VALID,24.1696,VALID,103,VALID,1.28203,
2011-02-16, 02:39:04,VALID,999.684,VALID,0.5,VALID,91.1816,VALID,0,VALID,24.1696,VALID,106,VALID,1.89688,
2011-02-16, 02:40:04,VALID,999.64,VALID,0,VALID,91.2884,VALID,0,VALID,24.2104,VALID,116,VALID,1.5082,
2011-02-16, 02:41:04,VALID,999.631,VALID,0.5,VALID,91.441,VALID,0,VALID,24.2104,VALID,122,VALID,1.28828,
2011-02-16, 02:42:04,VALID,999.608,VALID,0.5,VALID,91.5554,VALID,0,VALID,24.1696,VALID,134,VALID,2.00586,
2011-02-16, 02:43:04,VALID,999.519,VALID,1,VALID,91.6623,VALID,0,VALID,24.1909,VALID,150,VALID,1.87852,
2011-02-16, 02:44:04,VALID,999.461,VALID,0.5,VALID,91.792,VALID,0,VALID,24.1305,VALID,159,VALID,3.2875,
2011-02-16, 02:45:04,VALID,999.37,VALID,0.5,VALID,91.8835,VALID,0,VALID,24.1128,VALID,184,VALID,2.56211,
2011-02-16, 02:46:04,VALID,999.362,VALID,0,VALID,91.9903,VALID,0,VALID,24.111,VALID,183,VALID,3.06836,
2011-02-16, 02:47:04,VALID,999.376,VALID,0.5,VALID,92.0895,VALID,0,VALID,24.1891,VALID,183,VALID,3.3332,
2011-02-16, 02:48:04,VALID,999.32,VALID,0,VALID,92.1887,VALID,0,VALID,24.2104,VALID,175,VALID,4.08789,
2011-02-16, 02:49:04,VALID,999.267,VALID,0,VALID,92.2421,VALID,0,VALID,24.2299,VALID,182,VALID,3.31953,
2011-02-16, 02:50:04,VALID,999.266,VALID,0,VALID,92.2879,VALID,0,VALID,24.1305,VALID,198,VALID,2.70039,
2011-02-16, 02:51:04,VALID,999.27,VALID,0,VALID,92.3184,VALID,0,VALID,24.0738,VALID,209,VALID,1.31406,
2011-02-16, 02:52:04,VALID,999.275,VALID,0,VALID,92.3337,VALID,0,VALID,24.0348,VALID,279,VALID,0.421484,
2011-02-16, 02:53:04,VALID,999.29,VALID,0,VALID,92.3108,VALID,0,VALID,24.0153,VALID,163,VALID,1.49961,
2011-02-16, 02:54:04,VALID,999.289,VALID,0,VALID,92.2803,VALID,0,VALID,23.9372,VALID,65,VALID,1.55039,
2011-02-16, 02:55:04,VALID,999.306,VALID,0,VALID,92.2803,VALID,0,VALID,23.9372,VALID,69,VALID,1.77656,
2011-02-16, 02:56:04,VALID,999.335,VALID,0,VALID,92.2803,VALID,0,VALID,23.9354,VALID,76,VALID,1.90313,
2011-02-16, 02:57:04,VALID,999.345,VALID,0,VALID,92.2955,VALID,0,VALID,23.9549,VALID,78,VALID,1.98906,
2011-02-16, 02:58:04,VALID,999.361,VALID,0,VALID,92.3337,VALID,0,VALID,23.9939,VALID,90,VALID,2.00508,
2011-02-16, 02:59:04,VALID,999.346,VALID,0,VALID,92.3642,VALID,0,VALID,23.9726,VALID,82,VALID,1.24883,
2011-02-16, 03:00:04,VALID,999.368,VALID,0,VALID,92.3947,VALID,0,VALID,23.9939,VALID,103,VALID,1.3543,
2011-02-16, 03:01:04,VALID,999.369,VALID,0,VALID,92.41,VALID,0,VALID,23.9531,VALID,112,VALID,1.31328,
2011-02-16, 03:02:04,VALID,999.346,VALID,0,VALID,92.4405,VALID,0,VALID,23.9549,VALID,119,VALID,1.20078,
2011-02-16, 03:03:04,VALID,999.319,VALID,0.5,VALID,92.4557,VALID,0,VALID,23.9336,VALID,145,VALID,1.16836,
2011-02-16, 03:04:04,VALID,999.348,VALID,0,VALID,92.4939,VALID,0,VALID,23.9336,VALID,146,VALID,1.72773,
2011-02-16, 03:05:04,VALID,999.392,VALID,0,VALID,92.5244,VALID,0,VALID,23.9531,VALID,159,VALID,1.55508,
2011-02-16, 03:06:04,VALID,999.425,VALID,0,VALID,92.5397,VALID,0,VALID,23.9744,VALID,161,VALID,1.5707,
2011-02-16, 03:07:04,VALID,999.436,VALID,0,VALID,92.5549,VALID,0,VALID,23.9549,VALID,158,VALID,1.26445,
2011-02-16, 03:08:04,VALID,999.496,VALID,0,VALID,92.5702,VALID,0,VALID,23.9531,VALID,136,VALID,1.74844,
2011-02-16, 03:09:04,VALID,999.522,VALID,0,VALID,92.6083,VALID,0.112286,VALID,23.9921,VALID,134,VALID,1.5793,
2011-02-16, 03:10:04,VALID,999.551,VALID,0,VALID,92.6007,VALID,0,VALID,23.9939,VALID,129,VALID,2.33594,
2011-02-16, 03:11:04,VALID,999.561,VALID,0,VALID,92.6083,VALID,0,VALID,23.9549,VALID,130,VALID,1.73359,
2011-02-16, 03:12:04,VALID,999.564,VALID,0,VALID,92.6388,VALID,0,VALID,23.9336,VALID,122,VALID,0.842188,
2011-02-16, 03:13:04,VALID,999.587,VALID,0,VALID,92.6236,VALID,0,VALID,23.8768,VALID,112,VALID,1.53047,
2011-02-16, 03:14:04,VALID,999.637,VALID,0,VALID,92.6312,VALID,0,VALID,23.836,VALID,117,VALID,0.689062,
2011-02-16, 03:15:04,VALID,999.693,VALID,0,VALID,92.616,VALID,0,VALID,23.8573,VALID,74,VALID,0.8625,
2011-02-16, 03:16:04,VALID,999.731,VALID,0,VALID,92.6312,VALID,0,VALID,23.797,VALID,58,VALID,1.01953,
2011-02-16, 03:17:04,VALID,999.727,VALID,0,VALID,92.6236,VALID,0,VALID,23.7988,VALID,53,VALID,1.31992,
2011-02-16, 03:18:04,VALID,999.684,VALID,0,VALID,92.6083,VALID,0,VALID,23.797,VALID,64,VALID,1.85,
2011-02-16, 03:19:04,VALID,999.735,VALID,0,VALID,92.616,VALID,0,VALID,23.8165,VALID,4,VALID,1.98945,
2011-02-16, 03:20:04,VALID,999.723,VALID,0,VALID,92.616,VALID,0,VALID,23.8768,VALID,328,VALID,1.39141,
2011-02-16, 03:21:04,VALID,999.717,VALID,0,VALID,92.6388,VALID,0,VALID,23.9159,VALID,350,VALID,1.4957,
2011-02-16, 03:22:04,VALID,999.709,VALID,0,VALID,92.6312,VALID,0,VALID,23.9354,VALID,321,VALID,2.0582,
2011-02-16, 03:23:04,VALID,999.66,VALID,0,VALID,92.6083,VALID,0,VALID,23.836,VALID,321,VALID,1.525,
2011-02-16, 03:24:04,VALID,999.651,VALID,0.5,VALID,92.5854,VALID,0,VALID,23.8555,VALID,6,VALID,0.623828,
2011-02-16, 03:25:04,VALID,999.659,VALID,0,VALID,92.5397,VALID,0,VALID,23.8555,VALID,101,VALID,0.791797,
2011-02-16, 03:26:04,VALID,999.648,VALID,0,VALID,92.4557,VALID,0,VALID,23.797,VALID,90,VALID,1.54648,
2011-02-16, 03:27:04,VALID,999.69,VALID,0,VALID,92.3794,VALID,0,VALID,23.8183,VALID,110,VALID,1.91875,
2011-02-16, 03:28:04,VALID,999.644,VALID,0,VALID,92.2726,VALID,0,VALID,23.8183,VALID,138,VALID,1.81914,
2011-02-16, 03:29:04,VALID,999.614,VALID,0,VALID,92.204,VALID,0,VALID,23.8378,VALID,143,VALID,1.47305,
2011-02-16, 03:30:04,VALID,999.598,VALID,0,VALID,92.1429,VALID,0,VALID,23.8573,VALID,143,VALID,1.2543,
2011-02-16, 03:31:04,VALID,999.575,VALID,0,VALID,92.0971,VALID,0,VALID,23.8768,VALID,148,VALID,0.796484,
2011-02-16, 03:32:04,VALID,999.546,VALID,0,VALID,92.0743,VALID,0,VALID,23.8982,VALID,148,VALID,0.327734,
2011-02-16, 03:33:04,VALID,999.499,VALID,0,VALID,92.0437,VALID,0,VALID,23.8183,VALID,127,VALID,0.453516,
2011-02-16, 03:34:04,VALID,999.5,VALID,0,VALID,92.0285,VALID,0,VALID,23.8201,VALID,127,VALID,0.135547,
2011-02-16, 03:35:04,VALID,999.503,VALID,0,VALID,92.0437,VALID,0,VALID,23.8573,VALID,303,VALID,1.08203,
2011-02-16, 03:36:04,VALID,999.522,VALID,0,VALID,92.059,VALID,0,VALID,23.8768,VALID,296,VALID,0.823828,
2011-02-16, 03:37:04,VALID,999.566,VALID,0,VALID,92.0895,VALID,0,VALID,23.8768,VALID,301,VALID,0.807422,
2011-02-16, 03:38:04,VALID,999.648,VALID,0,VALID,92.1048,VALID,0,VALID,23.8768,VALID,312,VALID,0.348828,
2011-02-16, 03:39:04,VALID,999.717,VALID,0,VALID,92.1582,VALID,0,VALID,23.8768,VALID,312,VALID,0.134766,
2011-02-16, 03:40:04,VALID,999.787,VALID,0,VALID,92.1734,VALID,0,VALID,23.8982,VALID,312,VALID,0,
2011-02-16, 03:41:04,VALID,999.824,VALID,0,VALID,92.204,VALID,0,VALID,23.8573,VALID,312,VALID,0.271875,
2011-02-16, 03:42:04,VALID,999.865,VALID,0,VALID,92.2497,VALID,0,VALID,23.8573,VALID,312,VALID,0.514453,
2011-02-16, 03:43:04,VALID,999.819,VALID,0,VALID,92.3031,VALID,0,VALID,23.8396,VALID,312,VALID,0.398438,
2011-02-16, 03:44:04,VALID,999.821,VALID,0,VALID,92.3413,VALID,0,VALID,23.8183,VALID,222,VALID,0.464063,
2011-02-16, 03:45:04,VALID,999.806,VALID,0,VALID,92.3566,VALID,0,VALID,23.8183,VALID,222,VALID,0.553906,